Sacramento International, CA

12:34 AM PDT on October 19, 2017 (GMT -0700)
Sacramento International

Weather History for KSMF - May, 2013

Change the Weather History Date:

Tuesday, May 7, 2013

  Actual Average Record
Temperature  
Mean Temperature 65 °F -  
Max Temperature 75 °F 79 °F 101 °F (1987)
Min Temperature 57 °F 49 °F 38 °F (1964)
Growing Degree Days 15 (Base 50)    
Moisture  
Dew Point 52 °F    
Average Humidity 66    
Maximum Humidity 94    
Minimum Humidity 44    
Precipitation  
Precipitation 0.00 in - - ()
Sea Level Pressure  
Sea Level Pressure 29.97 in    
Wind  
Wind Speed 6 mph (SSW)    
Max Wind Speed 9 mph    
Max Gust Speed -    
Visibility 10 miles    
Events      
Averages and records for this station are not official NWS values.
T = Trace of Precipitation, MM = Missing Value Source: NWS Daily Summary

Daily Weather History Graph

Daily Weather History Graph

Search for Another Location

Airport or City:

Trip Planner

Search our weather history database for the weather conditions in past years. The results will help you decide how hot, cold, wet, or windy it might be!

Date:

Astronomy

May. 07, 2013 Rise Set
Actual Time 6:01 AM PDT 8:04 PM PDT
Civil Twilight 5:32 AM PDT 8:33 PM PDT
Nautical Twilight 4:56 AM PDT 9:09 PM PDT
Astronomical Twilight 4:18 AM PDT 9:48 PM PDT
Moon 4:37 AM PDT (5/7) 6:10 PM PDT (5/7)
Length of Visible Light 15h 01m
Length of Day
14h 02m
Waning Crescent, 5% of the Moon is Illuminated
May 7
Waning Crescent
May 9
New
May 17
First Quarter
May 24
Full
May 31
Last Quarter

Hourly Weather History & Observations

Time (PDT) Temp. Dew Point Humidity Pressure Visibility Wind Dir Wind Speed Gust Speed Precip Events Conditions
12:53 AM 57.2 °F 55.4 °F 94% 29.95 in 10.0 mi SSE 6.9 mph - N/A   Mostly Cloudy
1:53 AM 57.9 °F 54.0 °F 87% 29.95 in 10.0 mi SSE 4.6 mph - N/A   Overcast
2:53 AM 57.9 °F 53.1 °F 84% 29.95 in 10.0 mi South 6.9 mph - N/A   Overcast
3:53 AM 57.9 °F 54.0 °F 87% 29.95 in 10.0 mi South 6.9 mph - N/A   Overcast
4:53 AM 57.9 °F 54.0 °F 87% 29.95 in 10.0 mi SSW 5.8 mph - N/A   Overcast
5:53 AM 57.9 °F 53.1 °F 84% 29.96 in 10.0 mi SSW 5.8 mph - N/A   Mostly Cloudy
6:53 AM 57.9 °F 53.1 °F 84% 29.97 in 10.0 mi SSE 4.6 mph - N/A   Partly Cloudy
7:53 AM 59.0 °F 53.1 °F 81% 29.98 in 10.0 mi South 3.5 mph - N/A   Mostly Cloudy
8:53 AM 61.0 °F 54.0 °F 78% 29.99 in 10.0 mi SSW 4.6 mph - N/A   Scattered Clouds
9:53 AM 64.9 °F 54.0 °F 68% 30.00 in 10.0 mi SW 8.1 mph - N/A   Clear
10:53 AM 68.0 °F 53.1 °F 59% 30.00 in 10.0 mi SSW 8.1 mph - N/A   Clear
11:53 AM 68.0 °F 51.1 °F 55% 30.00 in 10.0 mi Calm Calm - N/A   Overcast
12:53 PM 70.0 °F 48.0 °F 46% 29.99 in 10.0 mi South 3.5 mph - N/A   Mostly Cloudy
1:53 PM 72.0 °F 50.0 °F 46% 29.98 in 10.0 mi South 8.1 mph - N/A   Mostly Cloudy
2:53 PM 72.0 °F 48.9 °F 44% 29.97 in 10.0 mi SSW 6.9 mph - N/A   Mostly Cloudy
3:53 PM 72.0 °F 48.9 °F 44% 29.96 in 10.0 mi WSW 6.9 mph - N/A   Mostly Cloudy
4:53 PM 73.0 °F 50.0 °F 44% 29.95 in 10.0 mi SW 8.1 mph - N/A   Mostly Cloudy
5:53 PM 72.0 °F 48.9 °F 44% 29.95 in 10.0 mi WSW 6.9 mph - N/A   Mostly Cloudy
6:53 PM 71.1 °F 51.1 °F 49% 29.95 in 10.0 mi SW 9.2 mph - N/A   Mostly Cloudy
7:53 PM 69.1 °F 52.0 °F 54% 29.96 in 10.0 mi WSW 3.5 mph - N/A   Mostly Cloudy
8:53 PM 68.0 °F 53.1 °F 59% 29.97 in 10.0 mi WSW 4.6 mph - N/A   Mostly Cloudy
9:53 PM 66.9 °F 53.1 °F 61% 29.97 in 10.0 mi WSW 9.2 mph - N/A   Mostly Cloudy
10:53 PM 63.0 °F 53.1 °F 70% 29.99 in 10.0 mi WSW 6.9 mph - N/A   Mostly Cloudy
11:53 PM 63.0 °F 53.1 °F 70% 30.00 in 10.0 mi SSW 4.6 mph - N/A   Mostly Cloudy